This is the latest recevied weather packets stored in our database for station/object K7SKM. If no packets are shown the sender has not sent any weather packets the latest 10 day(s).
| Time | Temp. | Humidity | Pressure | Rain* | Wind** | Luminosity | Snow |
|---|---|---|---|---|---|---|---|
| 1788645520 | 20° C | 54% | 1021.9 hPa | 0 mm | - | 125 W/m² | - |
| 1788645216 | 18.89° C | 55% | 1021.9 hPa | 0 mm | - | 133 W/m² | - |
| 1788644944 | 18.89° C | 57% | 1021.9 hPa | 0 mm | - | 129 W/m² | - |
| 1788644613 | 19.44° C | 57% | 1022 hPa | 0 mm | - | 138 W/m² | - |
| 1788644308 | 18.89° C | 63% | 1022 hPa | 0 mm | - | 182 W/m² | - |
| 1788644004 | 18.33° C | 68% | 1022.1 hPa | 0 mm | - | 160 W/m² | - |
| 1788643699 | 17.78° C | 70% | 1022.2 hPa | 0 mm | - | 168 W/m² | - |
| 1788643399 | 17.78° C | 70% | 1022.1 hPa | 0 mm | - | 175 W/m² | - |
| 1788643093 | 17.22° C | 71% | 1022.1 hPa | 0 mm | - | 181 W/m² | - |
| 1788642788 | 17.78° C | 72% | 1022.4 hPa | 0 mm | - | 184 W/m² | - |
| 1788642485 | 17.22° C | 74% | 1022.3 hPa | 0 mm | - | 188 W/m² | - |
| 1788642184 | 16.67° C | 75% | 1022.1 hPa | 0 mm | - | 197 W/m² | - |
| 1788641883 | 16.67° C | 75% | 1022.4 hPa | 0 mm | - | 235 W/m² | - |
| 1788641578 | 16.11° C | 76% | 1022.6 hPa | 0 mm | - | 196 W/m² | - |
| 1788641277 | 15.56° C | 77% | 1022.4 hPa | 0 mm | - | 181 W/m² | - |
| 1788640974 | 15.56° C | 78% | 1022.4 hPa | 0 mm | - | 160 W/m² | - |
| 1788640672 | 15° C | 79% | 1022.5 hPa | 0 mm | - | 142 W/m² | - |
| 1788640368 | 15° C | 80% | 1022.6 hPa | 0 mm | - | 121 W/m² | - |
| 1788640064 | 15° C | 79% | 1022.6 hPa | 0 mm | - | 106 W/m² | - |
| 1788639758 | 14.44° C | 78% | 1022.5 hPa | 0 mm | - | 95 W/m² | - |
| 1788639454 | 15° C | 81% | 1022.6 hPa | 0 mm | - | 86 W/m² | - |
| 1788639149 | 14.44° C | 81% | 1022.6 hPa | 0 mm | - | 82 W/m² | - |
| 1788638844 | 14.44° C | 80% | 1022.6 hPa | 0 mm | - | 82 W/m² | - |
| 1788638540 | 14.44° C | 81% | 1022.6 hPa | 0 mm | - | 82 W/m² | - |
| 1788638238 | 14.44° C | 81% | 1022.6 hPa | 0 mm | - | 84 W/m² | - |
* Rain latest hour (hover to see other rain measurements)
** Current wind speed in m/s (hover to see current wind gust speed)